This is the latest recevied weather packets stored in our database for station/object K0SDS. If no packets are shown the sender has not sent any weather packets the latest 10 day(s).
| Time | Temp. | Humidity | Pressure | Rain* | Wind** | Luminosity | Snow |
|---|---|---|---|---|---|---|---|
| 1777673474 | 17.78° C | 45% | 1016 hPa | 0 mm | - | 387 W/m² | - |
| 1777673171 | 17.22° C | 43% | 1016 hPa | 0 mm | - | 373 W/m² | - |
| 1777672868 | 17.22° C | 44% | 1016.1 hPa | 0 mm | - | 71 W/m² | - |
| 1777672564 | 17.78° C | 45% | 1015.9 hPa | 0 mm | - | 67 W/m² | - |
| 1777672260 | 17.78° C | 41% | 1016.3 hPa | 0 mm | - | 132 W/m² | - |
| 1777671955 | 18.89° C | 38% | 1016.1 hPa | 0 mm | - | 127 W/m² | - |
| 1777671651 | 20° C | 40% | 1016.1 hPa | 0 mm | - | 255 W/m² | - |
| 1777671348 | 20° C | 36% | 1016.2 hPa | 0 mm | - | 463 W/m² | - |
| 1777671044 | 19.44° C | 42% | 1016.1 hPa | 0 mm | - | 482 W/m² | - |
| 1777670740 | 18.89° C | 38% | 1016.3 hPa | 0 mm | - | 501 W/m² | - |
| 1777670438 | 17.22° C | 43% | 1016.7 hPa | 0 mm | - | 498 W/m² | - |
| 1777670134 | 17.22° C | 45% | 1016.5 hPa | 0 mm | - | 115 W/m² | - |
| 1777669832 | 17.22° C | 43% | 1016.9 hPa | 0 mm | - | 106 W/m² | - |
| 1777669528 | 17.22° C | 44% | 1016.8 hPa | 0 mm | - | 121 W/m² | - |
| 1777669225 | 17.78° C | 41% | 1016.7 hPa | 0 mm | - | 127 W/m² | - |
| 1777668922 | 17.78° C | 38% | 1017 hPa | 0 mm | - | 103 W/m² | - |
| 1777668620 | 18.33° C | 40% | 1017 hPa | 0 mm | - | 156 W/m² | - |
| 1777668315 | 18.89° C | 38% | 1017.1 hPa | 0 mm | - | 208 W/m² | - |
| 1777668011 | 19.44° C | 40% | 1017.2 hPa | 0 mm | - | 171 W/m² | - |
| 1777667708 | 19.44° C | 41% | 1017.3 hPa | 0 mm | - | 626 W/m² | - |
| 1777667406 | 18.33° C | 40% | 1017.3 hPa | 0 mm | - | 641 W/m² | - |
| 1777667103 | 18.89° C | 36% | 1017.4 hPa | 0 mm | - | 154 W/m² | - |
| 1777666799 | 19.44° C | 35% | 1017.6 hPa | 0 mm | - | 396 W/m² | - |
| 1777666496 | 20° C | 37% | 1017.5 hPa | 0 mm | - | 227 W/m² | - |
| 1777666192 | 20° C | 40% | 1017.4 hPa | 0 mm | - | 280 W/m² | - |
* Rain latest hour (hover to see other rain measurements)
** Current wind speed in m/s (hover to see current wind gust speed)